Impacts METAR Board INFO
IDs:

KORD - Chicago/O'Hare Intl, IL, US

Updated at: 1922 UTC 19 Jan 2018
Potential Impact None Slight Moderate High
Time19/07Z 19/08Z 19/09Z 19/10Z 19/11Z 19/12Z 19/13Z 19/14Z 19/15Z 19/16Z 19/17Z 19/18Z 19/19Z
VIS10 10 10 10 10 10 10 10 10 10 10 10 10
CIG-- -- -- -- -- -- -- -- 250 250 250 250 250
CoverFEWFEWFEWFEWSCTSCTSCTSCTBKNBKNBKNOVCBKN
FltCatVFRVFRVFRVFRVFRVFRVFRVFRVFRVFRVFRVFRVFR
WX--------------------------
WDir230230220220220220220220210220220210220
WSpd9 11 11 10 13 14 14 14 14 14 15 16 13
WGst-- -- -- -- -- 22 -- -- 18 21 21 20 --
Raw hourly METARs
KORD 190651Z 23009KT 10SM FEW250 M01/M08 A2993 RMK AO2 SLP144 T10111078
KORD 190751Z 23011KT 10SM FEW250 M01/M08 A2993 RMK AO2 SLP141 T10111078
KORD 190851Z 22011KT 10SM FEW250 M02/M08 A2993 RMK AO2 SLP143 T10171078 55006
KORD 190951Z 22010KT 10SM FEW250 M02/M08 A2992 RMK AO2 SLP138 T10221078
KORD 191051Z 22013KT 10SM SCT250 M02/M07 A2990 RMK AO2 SLP134 T10171072
KORD 191151Z 22014G22KT 10SM SCT250 M02/M07 A2989 RMK AO2 SLP128 4/002 T10171072 11011 21022 58015
KORD 191251Z 22014KT 10SM FEW180 SCT250 M02/M07 A2989 RMK AO2 SLP128 T10171072
KORD 191351Z 22014KT 10SM SCT250 M02/M08 A2989 RMK AO2 SLP129 T10171078
KORD 191451Z 21014G18KT 10SM BKN250 M01/M07 A2989 RMK AO2 SLP129 T10061072 53002
KORD 191551Z 22014G21KT 10SM BKN250 01/M07 A2989 RMK AO2 SLP129 T00061072
KORD 191651Z 22015G21KT 10SM BKN250 01/M07 A2988 RMK AO2 SLP126 T00111067
KORD 191751Z 21016G20KT 10SM OVC250 02/M06 A2983 RMK AO2 SLP107 4/001 T00221061 10022 21017 58021
KORD 191851Z 22013KT 10SM BKN250 03/M06 A2979 RMK AO2 SLP094 T00331056